This is the latest recevied weather packets stored in our database for station/object KO4ZGL-13. If no packets are shown the sender has not sent any weather packets the latest 1 day(s).
| Time | Temp. | Humidity | Pressure | Rain* | Wind** | Luminosity | Snow |
|---|---|---|---|---|---|---|---|
| 1778027080 | 20.56° C | 74% | 1016.6 hPa | 0 mm | 0 m/s | 0 W/m² | - |
| 1778026775 | 20.56° C | 73% | 1016.7 hPa | 0 mm | 1.34 m/s, 341° | 0 W/m² | - |
| 1778026472 | 20.56° C | 73% | 1016.7 hPa | 0 mm | 0.45 m/s, 334° | 0 W/m² | - |
| 1778026169 | 21.11° C | 73% | 1016.9 hPa | 0 mm | 0.45 m/s, 351° | 0 W/m² | - |
| 1778025867 | 21.11° C | 72% | 1016.7 hPa | 0 mm | 1.34 m/s, 342° | 1 W/m² | - |
| 1778025563 | 21.11° C | 72% | 1016.6 hPa | 0 mm | 0.89 m/s, 13° | 3 W/m² | - |
| 1778025262 | 21.67° C | 71% | 1016.6 hPa | 0 mm | 0.45 m/s, 329° | 5 W/m² | - |
| 1778024958 | 21.67° C | 70% | 1016.7 hPa | 0 mm | 0.89 m/s, 326° | 7 W/m² | - |
| 1778024656 | 21.67° C | 69% | 1016.9 hPa | 0 mm | 0.45 m/s, 323° | 10 W/m² | - |
| 1778024352 | 22.22° C | 68% | 1016.7 hPa | 0 mm | 1.34 m/s, 0° | 12 W/m² | - |
| 1778024050 | 22.22° C | 68% | 1016.6 hPa | 0 mm | 0.45 m/s, 327° | 15 W/m² | - |
| 1778023748 | 22.22° C | 68% | 1016.3 hPa | 0 mm | 0.45 m/s, 311° | 17 W/m² | - |
| 1778023445 | 22.22° C | 67% | 1016.4 hPa | 0 mm | 0.89 m/s, 333° | 18 W/m² | - |
| 1778023142 | 22.78° C | 67% | 1016.3 hPa | 0 mm | 0.45 m/s, 355° | 22 W/m² | - |
| 1778022839 | 22.78° C | 67% | 1016.2 hPa | 0 mm | 1.34 m/s, 343° | 22 W/m² | - |
| 1778022537 | 22.78° C | 66% | 1016.4 hPa | 0 mm | 0.45 m/s, 326° | 24 W/m² | - |
| 1778022234 | 22.78° C | 65% | 1016.2 hPa | 0 mm | 1.34 m/s, 322° | 26 W/m² | - |
| 1778021931 | 23.33° C | 64% | 1016.2 hPa | 0 mm | 1.34 m/s, 31° | 29 W/m² | - |
| 1778021628 | 23.33° C | 63% | 1016.3 hPa | 0 mm | 0.45 m/s, 322° | 29 W/m² | - |
| 1778021323 | 23.33° C | 62% | 1016.4 hPa | 0 mm | 1.79 m/s, 15° | 30 W/m² | - |
| 1778021021 | 24.44° C | 62% | 1016.3 hPa | 0 mm | 0.45 m/s, 321° | 56 W/m² | - |
| 1778020718 | 24.44° C | 62% | 1016.4 hPa | 0 mm | 0.45 m/s, 336° | 127 W/m² | - |
| 1778020415 | 23.89° C | 61% | 1016.2 hPa | 0 mm | 1.34 m/s, 312° | 48 W/m² | - |
| 1778020111 | 24.44° C | 59% | 1016.2 hPa | 0 mm | 0.45 m/s, 21° | 185 W/m² | - |
| 1778019807 | 25° C | 59% | 1016.4 hPa | 0 mm | 1.79 m/s, 22° | 208 W/m² | - |
* Rain latest hour (hover to see other rain measurements)
** Current wind speed in m/s (hover to see current wind gust speed)